Time,TemperatureF,DewpointF,PressureIn,WindDirection,WindDirectionDegrees,WindSpeedMPH,WindSpeedGustMPH,Humidity,HourlyPrecipIn,Conditions,Clouds,dailyrainin,SolarRadiationWatts/m^2,SoftwareType,DateUTC
2013-02-01 00:02:00,44.0,29.0,-100.00,WSW,245,4.0,7.0,55,0.00,,,0.00,0.000000,,2013-02-01 06:02:00,
2013-02-01 00:32:00,43.0,29.0,-100.00,WSW,251,3.0,6.0,58,0.00,,,0.00,0.000000,,2013-02-01 06:32:00,
2013-02-01 00:42:00,43.0,29.0,-100.00,WSW,251,3.0,6.0,58,0.00,,,0.00,0.000000,,2013-02-01 06:42:00,
2013-02-01 00:52:00,43.0,29.0,-100.00,WSW,251,3.0,6.0,58,0.00,,,0.00,0.000000,,2013-02-01 06:52:00,
2013-02-01 01:02:00,43.0,29.0,-100.00,WSW,251,3.0,6.0,58,0.00,,,0.00,0.000000,,2013-02-01 07:02:00,
2013-02-01 01:32:00,42.0,30.0,-100.00,SW,236,2.0,6.0,62,0.00,,,-99.99,0.000000,,2013-02-01 07:32:00,
2013-02-01 01:42:00,42.0,30.0,-100.00,SW,236,2.0,6.0,62,0.00,,,-99.99,0.000000,,2013-02-01 07:42:00,
2013-02-01 01:52:00,42.0,30.0,-100.00,SW,236,2.0,6.0,62,0.00,,,-99.99,0.000000,,2013-02-01 07:52:00,
2013-02-01 02:01:00,42.0,30.0,-100.00,SW,236,2.0,6.0,62,0.00,,,-99.99,0.000000,,2013-02-01 08:01:00,
2013-02-01 02:32:00,38.0,31.0,-100.00,SW,219,2.0,4.0,76,0.00,,,0.00,0.000000,,2013-02-01 08:32:00,
2013-02-01 02:42:00,38.0,31.0,-100.00,SW,219,2.0,4.0,76,0.00,,,0.00,0.000000,,2013-02-01 08:42:00,
2013-02-01 02:52:00,38.0,31.0,-100.00,SW,219,2.0,4.0,76,0.00,,,0.00,0.000000,,2013-02-01 08:52:00,
2013-02-01 03:01:00,38.0,31.0,-100.00,SW,219,2.0,4.0,76,0.00,,,0.00,0.000000,,2013-02-01 09:01:00,
2013-02-01 03:32:00,36.0,33.0,-100.00,SW,227,2.0,3.0,90,0.00,,,0.00,0.000000,,2013-02-01 09:32:00,
2013-02-01 03:42:00,36.0,33.0,-100.00,SW,227,2.0,3.0,90,0.00,,,0.00,0.000000,,2013-02-01 09:42:00,
2013-02-01 03:52:00,36.0,33.0,-100.00,SW,227,2.0,3.0,90,0.00,,,0.00,0.000000,,2013-02-01 09:52:00,
2013-02-01 04:01:00,36.0,33.0,-100.00,SW,227,2.0,3.0,90,0.00,,,0.00,0.000000,,2013-02-01 10:01:00,
2013-02-01 04:32:00,37.0,34.0,-100.00,West,265,0.0,3.0,89,0.00,,,0.00,0.000000,,2013-02-01 10:32:00,
2013-02-01 04:43:00,37.0,34.0,-100.00,West,265,0.0,3.0,89,0.00,,,0.00,0.000000,,2013-02-01 10:43:00,
2013-02-01 04:53:00,37.0,34.0,-100.00,West,265,0.0,3.0,89,0.00,,,0.00,0.000000,,2013-02-01 10:53:00,
2013-02-01 05:02:00,37.0,34.0,-100.00,West,265,0.0,3.0,89,0.00,,,0.00,0.000000,,2013-02-01 11:02:00,
2013-02-01 05:32:00,42.0,34.0,-100.00,NW,323,7.0,11.0,73,0.00,,,0.00,0.000000,,2013-02-01 11:32:00,
2013-02-01 05:42:00,42.0,34.0,-100.00,NW,323,7.0,11.0,73,0.00,,,0.00,0.000000,,2013-02-01 11:42:00,
2013-02-01 05:53:00,42.0,34.0,-100.00,NW,323,7.0,11.0,73,0.00,,,0.00,0.000000,,2013-02-01 11:53:00,
2013-02-01 06:02:00,42.0,34.0,-100.00,NW,323,7.0,11.0,73,0.00,,,0.00,0.000000,,2013-02-01 12:02:00,
2013-02-01 06:32:00,43.0,33.0,-100.00,NW,319,5.0,11.0,68,0.00,,,0.00,0.000000,,2013-02-01 12:32:00,
2013-02-01 06:42:00,43.0,33.0,-100.00,NW,319,5.0,11.0,68,0.00,,,0.00,0.000000,,2013-02-01 12:42:00,
2013-02-01 06:52:00,43.0,33.0,-100.00,NW,319,5.0,11.0,68,0.00,,,0.00,0.000000,,2013-02-01 12:52:00,
2013-02-01 07:02:00,43.0,33.0,-100.00,NW,319,5.0,11.0,68,0.00,,,0.00,0.000000,,2013-02-01 13:02:00,
2013-02-01 07:33:00,43.0,33.0,-100.00,North,349,8.0,12.0,68,0.00,,,0.00,2.000000,,2013-02-01 13:33:00,
2013-02-01 07:43:00,43.0,33.0,-100.00,North,349,8.0,12.0,68,0.00,,,0.00,2.000000,,2013-02-01 13:43:00,
2013-02-01 07:53:00,43.0,33.0,-100.00,North,349,8.0,12.0,68,0.00,,,0.00,2.000000,,2013-02-01 13:53:00,
2013-02-01 08:03:00,43.0,33.0,-100.00,North,349,8.0,12.0,68,0.00,,,0.00,2.000000,,2013-02-01 14:03:00,
2013-02-01 08:32:00,44.0,34.0,-100.00,NNE,30,7.0,12.0,67,0.00,,,0.00,57.000000,,2013-02-01 14:32:00,
2013-02-01 08:42:00,44.0,34.0,-100.00,NNE,30,7.0,12.0,67,0.00,,,0.00,57.000000,,2013-02-01 14:42:00,
2013-02-01 08:53:00,44.0,34.0,-100.00,NNE,30,7.0,12.0,67,0.00,,,0.00,57.000000,,2013-02-01 14:53:00,
2013-02-01 09:02:00,44.0,34.0,-100.00,NNE,30,7.0,12.0,67,0.00,,,0.00,57.000000,,2013-02-01 15:02:00,
2013-02-01 09:33:00,45.0,34.0,-100.00,NNE,29,8.0,14.0,65,0.00,,,0.00,162.000000,,2013-02-01 15:33:00,
2013-02-01 09:42:00,45.0,34.0,-100.00,NNE,29,8.0,14.0,65,0.00,,,0.00,162.000000,,2013-02-01 15:42:00,
2013-02-01 09:52:00,45.0,34.0,-100.00,NNE,29,8.0,14.0,65,0.00,,,0.00,162.000000,,2013-02-01 15:52:00,
2013-02-01 10:03:00,45.0,34.0,-100.00,NNE,29,8.0,14.0,65,0.00,,,0.00,162.000000,,2013-02-01 16:03:00,
2013-02-01 10:33:00,48.0,29.0,-100.00,NNE,21,7.0,13.0,47,0.00,,,0.00,297.000000,,2013-02-01 16:33:00,
2013-02-01 10:43:00,48.0,29.0,-100.00,NNE,21,7.0,13.0,47,0.00,,,0.00,297.000000,,2013-02-01 16:43:00,
2013-02-01 10:52:00,48.0,29.0,-100.00,NNE,21,7.0,13.0,47,0.00,,,0.00,297.000000,,2013-02-01 16:52:00,
2013-02-01 11:02:00,48.0,29.0,-100.00,NNE,21,7.0,13.0,47,0.00,,,0.00,297.000000,,2013-02-01 17:02:00,
2013-02-01 11:32:00,52.0,27.0,-100.00,NE,36,7.0,13.0,38,0.00,,,0.00,645.000000,,2013-02-01 17:32:00,
2013-02-01 11:42:00,52.0,27.0,-100.00,NE,36,7.0,13.0,38,0.00,,,0.00,645.000000,,2013-02-01 17:42:00,
2013-02-01 11:53:00,52.0,27.0,-100.00,NE,36,7.0,13.0,38,0.00,,,0.00,645.000000,,2013-02-01 17:53:00,
2013-02-01 12:03:00,52.0,27.0,-100.00,NE,36,7.0,13.0,38,0.00,,,0.00,645.000000,,2013-02-01 18:03:00,
2013-02-01 12:32:00,55.0,27.0,-100.00,NNE,17,7.0,14.0,34,0.00,,,0.00,713.000000,,2013-02-01 18:32:00,
2013-02-01 12:42:00,55.0,27.0,-100.00,NNE,17,7.0,14.0,34,0.00,,,0.00,713.000000,,2013-02-01 18:42:00,
2013-02-01 12:53:00,55.0,27.0,-100.00,NNE,17,7.0,14.0,34,0.00,,,0.00,713.000000,,2013-02-01 18:53:00,
2013-02-01 13:02:00,55.0,27.0,-100.00,NNE,17,7.0,14.0,34,0.00,,,0.00,713.000000,,2013-02-01 19:02:00,
2013-02-01 13:32:00,58.0,29.0,-100.00,North,5,7.0,14.0,33,0.00,,,0.00,718.000000,,2013-02-01 19:32:00,
2013-02-01 13:42:00,58.0,29.0,-100.00,North,5,7.0,14.0,33,0.00,,,0.00,718.000000,,2013-02-01 19:42:00,
2013-02-01 13:52:00,58.0,29.0,-100.00,North,5,7.0,14.0,33,0.00,,,0.00,718.000000,,2013-02-01 19:52:00,
2013-02-01 14:02:00,58.0,29.0,-100.00,North,5,7.0,14.0,33,0.00,,,0.00,718.000000,,2013-02-01 20:02:00,
2013-02-01 14:32:00,60.0,28.0,-100.00,NE,37,7.0,13.0,30,0.00,,,-99.99,663.000000,,2013-02-01 20:32:00,
2013-02-01 14:42:00,60.0,28.0,-100.00,NE,37,7.0,13.0,30,0.00,,,-99.99,663.000000,,2013-02-01 20:42:00,
2013-02-01 14:52:00,60.0,28.0,-100.00,NE,37,7.0,13.0,30,0.00,,,-99.99,663.000000,,2013-02-01 20:52:00,
2013-02-01 15:02:00,60.0,28.0,-100.00,NE,37,7.0,13.0,30,0.00,,,-99.99,663.000000,,2013-02-01 21:02:00,
2013-02-01 15:32:00,61.0,26.0,-100.00,NE,39,6.0,12.0,26,0.00,,,0.00,548.000000,,2013-02-01 21:32:00,
2013-02-01 15:42:00,61.0,26.0,-100.00,NE,39,6.0,12.0,26,0.00,,,0.00,548.000000,,2013-02-01 21:42:00,
2013-02-01 15:52:00,61.0,26.0,-100.00,NE,39,6.0,12.0,26,0.00,,,0.00,548.000000,,2013-02-01 21:52:00,
2013-02-01 16:02:00,61.0,26.0,-100.00,NE,39,6.0,12.0,26,0.00,,,0.00,548.000000,,2013-02-01 22:02:00,
2013-02-01 16:32:00,59.0,27.0,-100.00,NE,46,5.0,11.0,29,0.00,,,0.00,347.000000,,2013-02-01 22:32:00,
2013-02-01 16:42:00,59.0,27.0,-100.00,NE,46,5.0,11.0,29,0.00,,,0.00,347.000000,,2013-02-01 22:42:00,
2013-02-01 16:52:00,59.0,27.0,-100.00,NE,46,5.0,11.0,29,0.00,,,0.00,347.000000,,2013-02-01 22:52:00,
2013-02-01 17:01:00,59.0,27.0,-100.00,NE,46,5.0,11.0,29,0.00,,,0.00,347.000000,,2013-02-01 23:01:00,
2013-02-01 17:32:00,58.0,28.0,-100.00,NE,54,4.0,8.0,32,0.00,,,0.00,178.000000,,2013-02-01 23:32:00,
2013-02-01 17:42:00,58.0,28.0,-100.00,NE,54,4.0,8.0,32,0.00,,,0.00,178.000000,,2013-02-01 23:42:00,
2013-02-01 17:52:00,58.0,28.0,-100.00,NE,54,4.0,8.0,32,0.00,,,0.00,178.000000,,2013-02-01 23:52:00,
2013-02-01 18:02:00,58.0,28.0,-100.00,NE,54,4.0,8.0,32,0.00,,,0.00,178.000000,,2013-02-02 00:02:00,
2013-02-01 18:32:00,47.0,34.0,-100.00,NNE,28,2.0,5.0,61,0.00,,,0.00,16.000000,,2013-02-02 00:32:00,
2013-02-01 19:02:00,47.0,34.0,-100.00,NNE,28,2.0,5.0,61,0.00,,,0.00,16.000000,,2013-02-02 01:02:00,
2013-02-01 19:32:00,44.0,33.0,-100.00,NNE,13,2.0,8.0,65,0.00,,,0.00,0.000000,,2013-02-02 01:32:00,
2013-02-01 19:42:00,44.0,33.0,-100.00,NNE,13,2.0,8.0,65,0.00,,,0.00,0.000000,,2013-02-02 01:42:00,
2013-02-01 19:52:00,44.0,33.0,-100.00,NNE,13,2.0,8.0,65,0.00,,,0.00,0.000000,,2013-02-02 01:52:00,
2013-02-01 20:01:00,44.0,33.0,-100.00,NNE,13,2.0,8.0,65,0.00,,,0.00,0.000000,,2013-02-02 02:01:00,
2013-02-01 20:32:00,41.0,32.0,-100.00,NNW,338,1.0,2.0,70,0.00,,,0.00,0.000000,,2013-02-02 02:32:00,
2013-02-01 20:42:00,41.0,32.0,-100.00,NNW,338,1.0,2.0,70,0.00,,,0.00,0.000000,,2013-02-02 02:42:00,
2013-02-01 20:52:00,41.0,32.0,-100.00,NNW,338,1.0,2.0,70,0.00,,,0.00,0.000000,,2013-02-02 02:52:00,
2013-02-01 21:02:00,41.0,32.0,-100.00,NNW,338,1.0,2.0,70,0.00,,,0.00,0.000000,,2013-02-02 03:02:00,
2013-02-01 21:32:00,40.0,32.0,-100.00,NNE,26,2.0,4.0,74,0.00,,,0.00,0.000000,,2013-02-02 03:32:00,
2013-02-01 21:42:00,40.0,32.0,-100.00,NNE,26,2.0,4.0,74,0.00,,,0.00,0.000000,,2013-02-02 03:42:00,
2013-02-01 21:52:00,40.0,32.0,-100.00,NNE,26,2.0,4.0,74,0.00,,,0.00,0.000000,,2013-02-02 03:52:00,
2013-02-01 22:01:00,40.0,32.0,-100.00,NNE,26,2.0,4.0,74,0.00,,,0.00,0.000000,,2013-02-02 04:01:00,
2013-02-01 22:32:00,41.0,31.0,-100.00,East,89,4.0,8.0,68,0.00,,,0.00,0.000000,,2013-02-02 04:32:00,
2013-02-01 22:42:00,41.0,31.0,-100.00,East,89,4.0,8.0,68,0.00,,,0.00,0.000000,,2013-02-02 04:42:00,
2013-02-01 22:52:00,41.0,31.0,-100.00,East,89,4.0,8.0,68,0.00,,,0.00,0.000000,,2013-02-02 04:52:00,
2013-02-01 23:03:00,41.0,31.0,-100.00,East,89,4.0,8.0,68,0.00,,,0.00,0.000000,,2013-02-02 05:03:00,
2013-02-01 23:33:00,42.0,30.0,-100.00,East,84,6.0,9.0,63,0.00,,,0.00,0.000000,,2013-02-02 05:33:00,
2013-02-01 23:42:00,42.0,30.0,-100.00,East,84,6.0,9.0,63,0.00,,,0.00,0.000000,,2013-02-02 05:42:00,
2013-02-01 23:52:00,42.0,30.0,-100.00,East,84,6.0,9.0,63,0.00,,,0.00,0.000000,,2013-02-02 05:52:00,